Starlink 32327

operational
NORAD ID: 61641 Int'l Des: 2024-191 Owner: SPXS Country: US Constellation: starlink
LEOCIRCULAR

About Starlink 32327

Description loading...

Live Position

Loading 3D Globe...

Upcoming Passes

Altitude History

Altitude vs Time

uPlot chart will show altitude changes over time

Two-Line Element Set

1 61641U 24191W 26047.99618287 -.00000430 00000-0 -61030-5 0 9998
2 61641 43.0045 271.1908 0001161 266.5865 93.4854 15.27574471 74378
Epoch: Feb 16, 2026 • Age: 23 hours

Current Status

Altitude 491.5 km
Velocity 7.62 km/s
Sub-Earth Point -32.63°S, 86.4°E
Launch Date Oct 23, 2024
Age 1.3 years
Type internet

Technical Details

Classification Payload
Mass 730.00 kg
Dry Mass 700.00 kg
Total Mass 730.00 kg
Length 0.30 m
Diameter 4.10 m
Span 29.00 m
Shape Box + pan
Manufacturer SPXS
Bus Type Starlink V2M
Phase Status In Orbit
Owner/State SPXS/US

Large Constellations

Loading constellations...